Date String (YYYY-MM-DD hh:mm:ss) UTC,Instrument flags,absolute air pressure of the measurement (hPa),sample flow rate (lpm),inlet stack bypass flow (lpm),air temperature of the measurement (°C),ambient temperature measured by the external sensor (°C),aerosol sample conditioner tube jacket temperature (°C),OPC LED temperature (°C),internal box temperature (°C),relative humidity of the measurement (%),span deviation,mass concentration of particles derived from Lorenz-Mie calculation of OPC scattering (μg/m³),mass concentration of particles derived from Lorenz-Mie calculation of OPC scattering (μg/m³),mass concentration of particles derived from Lorenz-Mie calculation of OPC scattering (μg/m³)
DateTimeUTC,F1_M11,P_M11,Q1_M11,Q2_M11,T1_M11,T2_M11,T3_M11,T4_M11,T5_M11,U1_M11,ZSPAN_M11,X0_M11,X2_M11,X1_M11
2024-01-27 03:00:00,SystemResetWarning,0836.2,5.00,000.00,023.1,022.0,000.0,031.4,024.5,15.7,0000.0,0003.95,0003.13,0002.86
2024-01-27 03:01:00,SystemResetWarning,0836.3,5.00,000.00,023.1,022.0,000.0,031.4,024.5,15.7,0000.0,0003.89,0003.11,0002.85
2024-01-27 03:02:00,SystemResetWarning,0836.3,5.00,000.00,023.1,022.0,000.0,031.4,024.5,15.7,0000.0,0003.92,0003.12,0002.85
2024-01-27 03:03:00,SystemResetWarning,0836.3,5.00,000.00,023.1,022.0,000.0,031.4,024.5,15.7,0000.0,0003.82,0003.09,0002.84
2024-01-27 03:04:00,SystemResetWarning,0836.3,5.00,000.00,023.1,022.0,000.0,031.4,024.5,15.7,0000.0,0003.80,0003.07,0002.82
2024-01-27 03:05:00,SystemResetWarning,0836.3,5.00,000.00,023.1,022.0,000.0,031.4,024.5,15.7,0000.0,0003.57,0003.00,0002.77
2024-01-27 03:06:00,SystemResetWarning,0836.3,4.99,000.00,023.1,021.9,000.0,031.4,024.5,15.7,0000.0,0003.84,0002.99,0002.74
2024-01-27 03:07:00,SystemResetWarning,0836.4,4.99,000.00,023.1,021.9,000.0,031.4,024.4,15.7,0000.0,0004.85,0002.99,0002.72
2024-01-27 03:08:00,SystemResetWarning,0836.4,5.00,000.00,023.1,021.9,000.0,031.4,024.4,15.7,0000.0,0004.78,0002.95,0002.70
2024-01-27 03:09:00,SystemResetWarning,0836.4,5.00,000.00,023.1,021.9,000.0,031.4,024.4,15.7,0000.0,0004.90,0002.91,0002.68
2024-01-27 03:10:00,SystemResetWarning,0836.4,5.00,000.00,023.1,021.9,000.0,031.4,024.4,15.7,0000.0,0004.88,0002.90,0002.67
2024-01-27 03:11:00,SystemResetWarning,0836.4,5.01,000.00,023.0,021.9,000.0,031.4,024.5,15.7,0000.0,0004.87,0002.91,0002.69
2024-01-27 03:12:00,SystemResetWarning,0836.4,5.01,000.00,023.0,021.9,000.0,031.4,024.4,15.7,0000.0,0004.87,0002.92,0002.69
2024-01-27 03:13:00,SystemResetWarning,0836.4,5.01,000.00,023.0,021.9,000.0,031.4,024.4,15.6,0000.0,0004.91,0002.93,0002.68
2024-01-27 03:14:00,SystemResetWarning,0836.4,5.00,000.00,023.0,021.9,000.0,031.4,024.4,15.6,0000.0,0004.92,0002.93,0002.68
2024-01-27 03:15:00,SystemResetWarning,0836.4,5.00,000.00,023.0,021.9,000.0,031.4,024.4,15.6,0000.0,0005.64,0002.91,0002.67
2024-01-27 03:16:00,SystemResetWarning,0836.4,5.00,000.00,023.0,022.0,000.0,031.4,024.4,15.6,0000.0,0006.43,0002.93,0002.69
2024-01-27 03:17:00,SystemResetWarning,0836.4,4.99,000.00,023.0,022.0,000.0,031.4,024.4,15.6,0000.0,0006.22,0002.94,0002.71
2024-01-27 03:18:00,SystemResetWarning,0836.4,5.00,000.00,023.0,022.0,000.0,031.4,024.5,15.6,0000.0,0005.18,0002.93,0002.71
2024-01-27 03:19:00,SystemResetWarning,0836.4,5.01,000.00,023.0,022.0,000.0,031.4,024.4,15.6,0000.0,0005.17,0002.94,0002.71
2024-01-27 03:20:00,SystemResetWarning,0836.4,5.00,000.00,023.0,022.0,000.0,031.4,024.4,15.6,0000.0,0004.99,0002.96,0002.70
2024-01-27 03:21:00,SystemResetWarning,0836.4,5.00,000.00,023.0,022.1,000.0,031.4,024.5,15.7,0000.0,0005.18,0002.97,0002.69
2024-01-27 03:22:00,SystemResetWarning,0836.4,4.99,000.00,023.0,022.1,000.0,031.4,024.4,16.1,0000.0,0005.28,0002.98,0002.67
2024-01-27 03:23:00,SystemResetWarning,0836.4,5.00,000.00,023.0,022.1,000.0,031.4,024.4,16.2,0000.0,0005.31,0002.98,0002.65
2024-01-27 03:24:00,SystemResetWarning,0836.5,5.00,000.00,023.0,022.1,000.0,031.3,024.4,16.1,0000.0,0005.28,0002.97,0002.63
2024-01-27 03:25:00,SystemResetWarning,0836.5,5.00,000.00,023.0,022.1,000.0,031.3,024.4,15.7,0000.0,0005.30,0002.98,0002.64
2024-01-27 03:26:00,SystemResetWarning,0836.5,5.01,000.00,023.0,022.1,000.0,031.3,024.4,16.0,0000.0,0004.75,0002.98,0002.62
2024-01-27 03:27:00,SystemResetWarning,0836.5,5.00,000.00,023.0,022.1,000.0,031.3,024.4,16.2,0000.0,0003.75,0002.96,0002.60
2024-01-27 03:28:00,SystemResetWarning,0836.5,5.01,000.00,023.0,022.1,000.0,031.3,024.3,16.3,0000.0,0003.72,0002.96,0002.59
2024-01-27 03:29:00,SystemResetWarning,0836.5,5.00,000.00,023.0,022.1,000.0,031.3,024.3,16.4,0000.0,0003.67,0002.95,0002.59
2024-01-27 03:30:00,SystemResetWarning,0836.5,5.00,000.00,023.0,022.1,000.0,031.3,024.3,16.4,0000.0,0004.48,0002.96,0002.60
2024-01-27 03:31:00,SystemResetWarning,0836.5,4.99,000.00,023.0,022.1,000.0,031.3,024.4,16.4,0000.0,0004.51,0002.93,0002.61
2024-01-27 03:32:00,SystemResetWarning,0836.5,5.00,000.00,023.0,022.1,000.0,031.3,024.3,16.4,0000.0,0004.31,0002.92,0002.64
2024-01-27 03:33:00,SystemResetWarning,0836.5,5.00,000.00,023.0,022.1,000.0,031.3,024.4,16.4,0000.0,0004.21,0002.88,0002.65
2024-01-27 03:34:00,SystemResetWarning,0836.5,5.01,000.00,023.0,022.1,000.0,031.3,024.4,16.3,0000.0,0004.18,0002.87,0002.66
2024-01-27 03:35:00,SystemResetWarning,0836.5,5.00,000.00,023.0,022.1,000.0,031.3,024.4,16.3,0000.0,0004.13,0002.86,0002.69
2024-01-27 03:36:00,SystemResetWarning,0836.6,5.00,000.00,023.0,022.1,000.0,031.3,024.4,16.3,0000.0,0004.11,0002.86,0002.70
2024-01-27 03:37:00,SystemResetWarning,0836.6,5.00,000.00,023.0,022.1,000.0,031.3,024.4,16.3,0000.0,0004.05,0002.84,0002.71
2024-01-27 03:38:00,SystemResetWarning,0836.6,5.01,000.00,023.0,022.1,000.0,031.3,024.4,16.2,0000.0,0004.14,0002.87,0002.72
2024-01-27 03:39:00,SystemResetWarning,0836.7,4.99,000.00,023.0,022.1,000.0,031.3,024.4,16.2,0000.0,0004.24,0002.91,0002.73
2024-01-27 03:40:00,SystemResetWarning,0836.7,4.99,000.00,023.0,022.1,000.0,031.3,024.4,16.2,0000.0,0004.41,0002.93,0002.72
2024-01-27 03:41:00,SystemResetWarning,0836.6,5.00,000.00,023.0,022.2,000.0,031.3,024.4,16.2,0000.0,0003.78,0002.96,0002.73
2024-01-27 03:42:00,SystemResetWarning,0836.6,5.00,000.00,023.0,022.2,000.0,031.3,024.4,16.2,0000.0,0003.72,0003.00,0002.75
2024-01-27 03:43:00,SystemResetWarning,0836.6,5.00,000.00,023.0,022.2,000.0,031.3,024.5,16.2,0000.0,0003.76,0003.01,0002.75
2024-01-27 03:44:00,SystemResetWarning,0836.6,5.00,000.00,023.0,022.2,000.0,031.3,024.4,16.3,0000.0,0003.77,0003.03,0002.76
2024-01-27 03:45:00,SystemResetWarning,0836.6,5.00,000.00,023.0,022.2,000.0,031.3,024.4,16.3,0000.0,0003.87,0003.06,0002.76
2024-01-27 03:46:00,SystemResetWarning,0836.6,5.00,000.00,023.0,022.2,000.0,031.3,024.5,16.3,0000.0,0003.89,0003.07,0002.77
2024-01-27 03:47:00,SystemResetWarning,0836.7,5.00,000.00,023.0,022.2,000.0,031.3,024.4,16.3,0000.0,0003.89,0003.09,0002.79
2024-01-27 03:48:00,SystemResetWarning,0836.7,5.00,000.00,023.0,022.2,000.0,031.3,024.5,16.3,0000.0,0004.01,0003.14,0002.83
2024-01-27 03:49:00,SystemResetWarning,0836.6,5.00,000.00,023.0,022.2,000.0,031.3,024.4,16.3,0000.0,0004.05,0003.14,0002.86
2024-01-27 03:50:00,SystemResetWarning,0836.6,5.00,000.00,023.0,022.2,000.0,031.3,024.4,16.2,0000.0,0004.22,0003.13,0002.87
2024-01-27 03:51:00,SystemResetWarning,0836.6,5.00,000.00,023.0,022.2,000.0,031.3,024.4,16.2,0000.0,0004.27,0003.15,0002.92
2024-01-27 03:52:00,SystemResetWarning,0836.6,5.00,000.00,023.0,022.1,000.0,031.3,024.4,16.2,0000.0,0004.66,0003.20,0003.00
2024-01-27 03:53:00,SystemResetWarning,0836.6,5.00,000.00,023.0,022.1,000.0,031.3,024.4,16.2,0000.0,0005.15,0003.27,0003.11
2024-01-27 03:54:00,SystemResetWarning,0836.6,5.01,000.00,023.0,022.1,000.0,031.3,024.4,16.1,0000.0,0005.31,0003.36,0003.20
2024-01-27 03:55:00,SystemResetWarning,0836.6,5.00,000.00,023.0,022.1,000.0,031.3,024.4,16.1,0000.0,0005.37,0003.42,0003.27
2024-01-27 03:56:00,SystemResetWarning,0836.6,5.01,000.00,023.0,022.1,000.0,031.3,024.4,16.1,0000.0,0005.42,0003.48,0003.34
2024-01-27 03:57:00,SystemResetWarning,0836.7,5.00,000.00,023.0,022.1,000.0,031.3,024.4,16.0,0000.0,0005.56,0003.54,0003.40
2024-01-27 03:58:00,SystemResetWarning,0836.6,5.00,000.00,023.0,022.1,000.0,031.3,024.4,16.0,0000.0,0005.73,0003.62,0003.46
2024-01-27 03:59:00,SystemResetWarning,0836.6,5.00,000.00,023.0,022.1,000.0,031.3,024.4,16.0,0000.0,0005.90,0003.68,0003.52
